TimePDT,TemperatureF,Dew PointF,Humidity,Sea Level PressureIn,VisibilityMPH,Wind Direction,Wind SpeedMPH,Gust SpeedMPH,PrecipitationIn,Events,Conditions,WindDirDegrees,DateUTC
12:56 AM,46.9,30.9,54,30.21,10.0,Calm,Calm,-,N/A,,Clear,0,2013-04-21 07:56:00
1:56 AM,48.0,32.0,54,30.19,10.0,Variable,3.5,-,N/A,,Clear,0,2013-04-21 08:56:00
2:56 AM,46.9,32.0,56,30.17,10.0,NNW,4.6,-,N/A,,Clear,340,2013-04-21 09:56:00
3:56 AM,46.0,32.0,58,30.17,10.0,NNW,8.1,-,N/A,,Clear,340,2013-04-21 10:56:00
4:56 AM,46.0,32.0,58,30.18,10.0,Variable,5.8,-,N/A,,Clear,0,2013-04-21 11:56:00
5:56 AM,44.1,30.9,60,30.19,10.0,Variable,4.6,-,N/A,,Clear,0,2013-04-21 12:56:00
6:56 AM,44.1,30.9,60,30.20,10.0,North,4.6,-,N/A,,Clear,10,2013-04-21 13:56:00
7:56 AM,48.0,32.0,54,30.23,10.0,Calm,Calm,-,N/A,,Clear,0,2013-04-21 14:56:00
8:56 AM,52.0,33.1,49,30.23,10.0,Variable,6.9,-,N/A,,Clear,0,2013-04-21 15:56:00
9:56 AM,55.9,34.0,44,30.22,10.0,Variable,6.9,-,N/A,,Clear,0,2013-04-21 16:56:00
10:56 AM,60.1,30.9,33,30.21,10.0,NW,10.4,20.7,N/A,,Clear,320,2013-04-21 17:56:00
11:56 AM,64.0,24.1,22,30.20,10.0,Variable,5.8,23.0,N/A,,Clear,0,2013-04-21 18:56:00
12:56 PM,64.0,26.1,24,30.19,10.0,Variable,6.9,20.7,N/A,,Clear,0,2013-04-21 19:56:00
1:56 PM,64.9,30.9,28,30.18,10.0,NW,12.7,21.9,N/A,,Clear,320,2013-04-21 20:56:00
2:56 PM,66.9,33.1,28,30.17,10.0,WNW,10.4,20.7,N/A,,Clear,300,2013-04-21 21:56:00
3:56 PM,68.0,33.1,27,30.15,10.0,North,8.1,20.7,N/A,,Clear,10,2013-04-21 22:56:00
4:56 PM,68.0,34.0,28,30.14,10.0,WNW,5.8,20.7,N/A,,Clear,300,2013-04-21 23:56:00
5:56 PM,66.0,36.0,33,30.15,10.0,NW,8.1,-,N/A,,Clear,310,2013-04-22 00:56:00
6:56 PM,62.1,35.1,37,30.16,10.0,Variable,5.8,18.4,N/A,,Clear,0,2013-04-22 01:56:00
7:56 PM,57.9,36.0,44,30.18,10.0,Variable,5.8,-,N/A,,Clear,0,2013-04-22 02:56:00
8:56 PM,55.0,36.0,49,30.19,10.0,Variable,5.8,-,N/A,,Clear,0,2013-04-22 03:56:00
9:56 PM,53.1,36.0,52,30.21,10.0,Variable,5.8,-,N/A,,Clear,0,2013-04-22 04:56:00
10:56 PM,52.0,37.9,59,30.19,10.0,North,5.8,-,N/A,,Clear,350,2013-04-22 05:56:00
11:56 PM,52.0,37.0,57,30.17,10.0,Variable,4.6,-,N/A,,Clear,0,2013-04-22 06:56:00